Theta_e
298 299 299 300 299 299 299 299 298 297 298 298 297 297 295 296 295 294 294 296 296 296 298 300 301 303 304 304 304 307 311 314 314 316 319 321 323 324 324 324 325 326 327 330 331 333 334 335 336 337 339 339 340 342 343 344 346 347 349 349 349 350 350 350 350 351 352 353 354 354 354 353 353 353 353 353 354 354 354 353 354 353 352 351 348 346 346
297 298 298 300 300 298 297 298 299 299 299 298 298 299 297 297 297 297 296 297 297 299 300 301 304 304 304 304 308 311 312 313 314 317 319 321 322 323 323 325 325 326 328 330 332 333 334 335 336 337 338 339 340 341 342 344 346 347 349 349 349 349 350 350 351 352 352 353 353 354 354 353 353 353 353 353 353 353 353 354 353 353 352 351 350 347 345
294 297 299 299 299 299 297 296 298 299 300 299 299 299 297 298 298 296 295 297 298 300 301 303 304 302 309 309 309 311 311 313 314 316 319 321 322 323 324 325 326 326 327 329 331 333 334 335 336 338 339 340 341 341 342 344 345 348 349 349 349 350 350 351 352 352 352 353 353 353 353 353 353 353 353 353 353 353 353 353 353 353 353 351 349 348 346
291 296 297 298 299 298 297 297 296 297 297 297 298 297 297 296 296 296 294 293 295 299 301 303 304 306 311 308 308 309 310 313 314 315 317 320 321 321 322 324 325 326 327 328 330 332 334 336 337 338 339 340 341 341 342 343 345 348 350 350 349 350 351 352 352 352 353 353 353 353 353 353 353 353 353 353 352 352 352 352 352 353 352 351 350 349 348
288 294 296 296 297 295 293 295 299 299 298 298 299 299 301 301 300 297 294 295 297 301 304 301 302 302 305 309 309 309 310 312 316 316 318 319 321 322 323 323 325 326 326 328 330 333 335 336 337 339 340 340 341 342 342 344 346 347 349 350 350 350 351 352 353 353 353 353 353 353 353 353 353 353 353 352 352 351 351 352 352 352 351 351 350 349 348
290 294 295 296 293 287 290 301 302 301 298 298 296 296 297 300 301 298 300 302 300 300 301 300 301 302 306 311 316 317 316 314 318 321 321 318 320 322 324 324 325 326 328 329 331 333 335 337 339 340 341 341 342 343 344 344 344 346 347 349 350 350 351 352 353 353 353 353 352 353 353 353 353 353 352 352 352 352 352 352 351 351 351 351 351 350 349
288 293 294 289 286 289 299 300 303 303 302 300 300 299 301 310 312 307 303 302 301 300 301 302 302 311 317 320 324 327 328 323 317 321 324 324 324 322 321 322 324 326 327 328 330 331 334 336 338 339 340 341 342 343 343 343 344 345 346 347 348 350 351 352 353 354 353 353 353 353 353 353 353 352 352 352 351 352 351 351 350 350 350 350 351 350 350
292 291 289 283 286 294 301 303 301 303 302 301 307 309 312 314 314 308 302 301 303 302 302 306 314 320 322 324 325 327 330 331 330 328 326 322 322 325 325 323 324 325 326 328 330 332 336 337 338 339 339 340 341 341 343 343 343 344 345 345 346 348 349 351 353 354 354 353 353 353 353 353 352 352 352 351 351 351 351 351 351 351 351 351 350 350 350
286 288 288 289 295 297 301 303 302 301 299 305 304 300 306 315 316 311 307 311 314 311 306 314 319 320 320 319 321 328 332 331 334 334 334 335 334 326 322 326 328 329 331 331 331 334 336 336 337 338 339 340 340 340 341 342 342 343 343 343 345 346 348 350 352 354 354 354 353 353 353 352 352 352 351 351 352 352 350 350 349 349 349 350 351 350 350
292 288 287 289 290 289 295 300 305 304 308 310 308 308 306 312 317 317 314 314 314 310 310 316 318 315 314 313 316 324 332 333 335 337 337 338 338 338 339 337 328 330 333 333 334 333 333 334 336 338 338 339 339 339 340 341 342 342 342 342 344 345 347 349 351 353 354 354 353 353 353 352 352 352 353 353 352 352 351 350 349 349 350 350 350 350 349
292 290 286 286 287 289 296 302 306 308 310 310 312 306 301 310 316 317 318 317 316 311 313 314 312 309 307 311 314 324 331 333 336 335 336 337 337 338 338 338 339 339 331 333 335 335 334 334 336 339 341 340 339 338 339 340 341 341 341 342 343 344 345 348 350 352 354 354 354 353 353 353 353 352 352 352 353 353 352 352 351 351 350 350 349 350 350
291 289 287 286 292 297 307 310 313 314 310 313 307 295 296 309 317 318 317 317 318 318 318 317 314 310 311 314 318 328 332 334 335 334 334 335 336 338 338 339 338 337 336 333 336 336 335 336 339 341 342 341 340 339 339 340 340 340 342 343 344 345 345 347 350 352 353 354 354 354 353 353 354 353 354 353 353 353 352 352 351 351 350 350 349 349 349
292 295 288 290 295 308 310 313 314 316 315 307 298 292 302 314 317 321 319 322 321 321 320 319 320 319 318 322 326 332 333 333 333 335 336 336 337 337 338 338 340 338 338 336 333 334 336 338 339 342 343 342 341 341 340 340 340 342 343 345 345 345 345 346 348 351 353 354 354 355 355 354 354 354 354 353 353 353 352 352 352 351 350 349 349 349 348
296 293 290 289 294 305 313 315 316 316 306 297 293 299 310 321 322 323 325 324 325 325 324 324 324 324 328 331 332 332 332 331 332 332 333 335 336 337 338 339 337 338 339 339 340 340 340 342 339 342 343 342 341 341 341 341 342 344 345 345 345 345 345 345 347 349 351 354 355 355 355 355 354 353 354 354 353 353 353 352 351 350 349 348 348 348 346
300 297 291 290 290 302 314 315 315 313 302 298 309 323 326 327 325 324 323 325 325 327 325 327 327 327 328 329 330 330 330 330 330 330 331 332 332 333 334 334 336 338 337 338 339 339 341 342 343 340 344 343 342 342 341 342 345 346 346 346 345 345 345 345 346 348 350 352 353 355 355 355 354 353 353 353 353 353 352 351 350 349 348 347 346 344 341
296 296 293 293 305 309 316 314 306 312 316 316 325 325 323 323 325 324 324 324 325 327 326 325 326 327 327 327 329 329 329 329 329 330 331 332 332 333 334 335 336 338 338 339 339 340 341 342 341 341 340 343 344 343 344 346 346 346 346 346 346 346 345 345 346 347 349 351 353 355 355 354 354 353 353 352 352 352 352 351 349 348 346 344 343 341 339
302 298 304 311 314 314 316 316 316 319 323 324 325 326 325 323 322 326 325 325 327 327 327 326 326 326 327 327 328 328 328 328 328 328 329 330 331 332 333 334 336 337 337 337 338 339 340 341 342 341 339 339 340 342 346 347 345 346 346 346 345 345 345 345 346 347 348 350 352 354 355 355 353 352 352 352 351 352 351 350 349 347 344 341 341 339 337
313 314 314 317 315 315 315 317 316 316 318 322 322 323 321 321 323 323 325 326 327 327 328 326 325 326 326 326 326 327 328 328 329 330 330 331 332 333 334 334 336 336 337 336 336 336 337 338 340 340 340 339 339 343 344 347 348 349 349 347 346 345 345 345 346 347 347 349 352 354 354 355 354 354 352 351 351 351 350 349 348 346 340 339 338 337 336
298 290 309 312 313 314 314 314 315 316 316 316 319 319 320 320 322 322 323 324 324 325 325 325 324 325 326 324 324 324 325 326 328 329 330 331 332 332 332 333 335 334 334 333 333 333 333 335 338 340 339 340 340 340 341 346 350 351 350 349 347 347 346 346 347 348 348 350 351 353 354 355 355 354 353 353 351 349 349 348 346 343 339 337 337 336 335
299 299 308 313 316 318 316 314 311 311 313 315 316 316 317 318 318 319 319 320 320 322 321 321 320 319 320 319 320 322 322 324 326 328 330 331 332 332 333 333 334 333 333 332 332 332 332 333 336 338 339 340 340 339 340 342 346 349 350 350 349 349 349 349 349 350 350 354 353 352 353 354 353 352 352 353 351 349 348 348 344 341 339 337 336 336 335
307 312 313 314 316 316 314 315 313 311 311 312 313 314 314 315 315 315 316 317 317 318 317 317 317 317 317 319 321 322 323 323 325 327 329 331 332 333 332 332 332 331 331 331 332 330 327 330 332 335 337 339 339 338 339 341 342 346 348 346 349 349 350 350 350 350 351 350 351 351 352 347 327 330 350 351 350 345 334 347 347 343 340 339 338 338 336
301 303 307 312 305 304 310 314 315 313 311 310 310 311 311 312 312 313 313 314 315 316 316 316 316 315 316 319 322 322 322 324 325 327 329 330 332 332 334 334 333 331 331 331 331 331 331 330 330 333 335 336 337 339 338 339 339 340 340 343 344 345 346 347 348 348 349 350 350 348 340 327 321 313 308 307 328 339 333 326 323 322 322 335 338 338 336
301 310 313 314 312 311 312 315 318 318 315 311 309 308 308 309 311 312 312 312 312 313 314 316 315 315 315 317 320 321 322 323 325 327 327 328 329 331 333 333 333 333 333 334 333 333 333 334 333 333 334 336 337 338 338 338 338 338 338 339 339 337 337 335 335 335 333 334 339 337 334 330 323 319 318 308 299 307 320 323 320 314 314 315 316 323 333
313 315 314 316 313 310 314 317 318 318 318 314 312 312 312 312 311 311 311 311 311 311 313 313 314 314 314 314 317 318 320 323 325 325 326 328 329 331 332 332 332 333 333 334 333 333 333 333 334 336 337 338 337 339 340 339 338 336 334 333 333 334 333 332 332 330 329 328 328 329 329 331 332 330 325 319 310 299 303 308 306 304 306 308 309 311 316
310 316 317 317 317 316 318 319 318 318 318 316 314 314 314 313 314 314 312 312 312 312 311 311 312 313 313 313 314 315 317 319 322 323 324 325 327 328 330 331 331 331 331 333 334 335 335 334 334 336 337 338 338 338 338 339 338 335 334 333 331 330 330 332 332 331 329 328 328 329 329 328 328 329 326 323 317 311 305 298 299 300 300 300 301 304 306
319 317 318 318 318 317 318 319 317 317 316 315 312 313 316 319 316 314 313 313 313 314 313 312 311 312 312 312 313 315 317 318 320 321 319 319 321 324 326 329 330 330 330 331 332 332 333 333 333 334 334 335 337 338 339 337 336 334 334 334 333 332 331 330 328 328 328 328 329 330 330 330 330 329 327 326 324 323 322 321 317 306 299 297 298 300 298
320 318 314 312 311 313 315 314 313 316 316 315 313 312 313 315 318 317 316 317 317 317 316 316 314 312 311 312 314 316 316 316 317 317 317 316 317 318 323 327 328 329 329 329 329 332 333 332 332 332 332 334 336 338 338 338 336 336 336 336 336 337 337 334 329 329 329 329 329 329 330 330 329 328 327 329 328 329 329 328 324 318 315 309 299 296 303
316 316 315 308 307 309 312 315 317 317 316 314 314 313 314 315 316 315 315 315 316 316 316 316 314 312 311 311 312 313 315 315 314 315 315 315 315 316 318 321 324 325 327 327 327 329 329 328 329 330 330 332 335 338 339 337 335 334 334 334 333 332 332 333 331 330 330 329 328 328 327 328 329 329 329 330 329 327 324 322 317 312 308 304 304 303 297
314 315 315 315 314 314 315 315 314 314 314 315 316 315 315 313 312 312 312 313 314 315 314 314 315 314 312 312 313 312 313 314 314 315 316 316 316 313 315 320 322 324 324 325 326 327 327 327 327 327 328 331 334 334 336 336 335 335 334 334 333 333 332 332 332 331 330 328 327 327 326 326 327 327 327 326 326 324 321 318 315 312 308 308 309 310 308
314 314 314 314 315 315 313 312 312 313 314 315 315 315 315 314 312 311 312 313 314 314 314 314 313 312 312 311 312 312 313 313 314 315 317 318 316 314 314 317 323 324 324 324 325 326 326 326 326 326 327 330 334 335 335 334 334 334 333 333 334 335 333 333 332 330 328 327 327 327 327 327 327 326 326 324 323 321 319 317 315 313 311 313 315 312 310
312 313 313 313 313 313 312 311 311 312 313 314 314 313 312 312 312 311 312 314 315 315 315 316 315 314 313 312 311 312 313 313 314 316 317 318 317 316 316 319 320 320 321 322 324 326 326 326 326 327 328 329 331 333 334 333 333 334 333 331 330 324 324 326 328 330 329 328 327 327 326 326 326 326 325 323 321 319 317 316 315 315 315 315 314 312 309
310 310 311 311 312 312 311 311 311 311 311 312 312 312 312 311 310 311 314 314 314 315 315 315 314 314 313 313 313 313 313 314 315 316 317 318 319 318 316 314 317 321 319 321 323 325 326 326 326 327 329 330 331 331 332 333 333 333 333 335 331 330 327 326 329 328 329 329 328 327 326 325 325 325 324 322 320 318 317 316 315 315 316 316 314 311 310
307 306 307 308 310 310 310 311 310 310 311 312 312 313 313 314 314 315 314 315 315 315 315 314 314 313 314 314 314 314 314 315 316 316 317 317 318 319 318 318 316 317 318 319 320 320 324 326 326 328 329 330 330 331 331 331 331 331 330 330 330 330 332 327 327 329 331 329 327 326 326 326 325 324 323 322 320 319 318 317 317 316 316 315 313 311 310
308 308 309 310 310 308 309 310 312 312 312 313 313 314 314 315 314 314 315 316 316 316 316 316 316 316 316 315 314 315 315 316 316 316 316 317 318 319 319 319 319 320 322 324 324 324 324 327 327 327 328 330 330 331 331 331 330 329 328 328 328 327 328 327 328 329 329 329 328 330 328 327 325 324 324 322 320 319 319 318 318 317 316 314 312 311 306
315 314 315 315 315 316 315 313 313 314 314 313 314 314 315 316 316 316 318 315 314 314 315 316 316 317 316 315 315 315 315 314 314 315 316 317 317 318 319 320 320 321 322 324 325 326 327 329 330 328 329 330 330 331 331 330 330 329 328 329 330 329 329 330 328 327 328 328 327 326 326 326 326 328 325 321 321 321 320 319 318 317 315 312 310 309 307
314 313 313 314 315 316 315 315 316 316 315 314 314 315 315 315 315 315 315 315 316 317 316 316 316 317 316 315 315 316 316 316 315 315 316 317 317 318 319 320 320 320 320 321 323 325 329 332 336 336 331 330 329 328 331 331 329 329 329 328 328 329 329 329 329 328 328 327 326 326 326 328 328 326 325 323 322 322 320 319 319 318 316 313 311 310 308
315 314 313 314 314 314 315 315 316 316 315 315 315 315 314 314 314 315 316 316 316 315 315 316 316 316 315 316 317 317 317 316 316 316 316 317 318 318 318 318 318 318 319 317 320 323 325 328 333 333 329 327 328 328 330 336 327 326 327 327 327 327 327 326 326 326 325 326 326 326 328 327 326 326 326 323 322 321 320 319 320 318 317 315 313 311 309
314 314 313 313 314 314 314 316 317 317 316 316 316 316 316 314 315 315 315 315 315 316 316 316 315 316 316 317 317 317 317 317 317 317 317 317 316 316 315 316 315 316 316 316 320 322 324 327 329 326 323 325 326 329 335 337 335 325 325 326 326 325 324 322 322 322 323 324 325 323 323 323 324 323 323 323 321 322 321 320 319 318 316 314 313 312 311
313 315 314 315 315 315 315 315 316 315 315 314 313 315 316 316 315 315 315 315 316 317 316 315 316 316 315 315 315 316 317 318 319 318 317 317 317 315 314 314 315 316 318 320 320 322 327 328 325 321 322 322 325 329 337 338 334 325 325 325 325 324 323 322 322 322 322 322 322 321 321 321 321 323 322 321 321 321 322 321 319 318 316 315 313 312 311
311 311 312 313 312 312 312 311 312 313 313 314 312 311 312 313 313 313 314 314 315 317 314 314 314 313 313 313 313 313 315 316 317 317 318 318 317 316 315 316 318 318 322 324 320 322 328 331 326 321 321 322 325 325 330 333 331 326 324 325 325 324 323 323 322 322 322 322 323 324 320 319 320 321 320 320 321 321 320 320 319 318 316 315 313 312 312
309 309 309 308 308 309 308 309 309 310 311 311 311 311 310 310 311 311 312 313 314 315 314 313 313 312 311 311 310 310 311 313 314 315 317 317 315 315 314 313 317 319 320 320 320 322 324 327 326 323 321 322 325 330 322 328 322 322 324 326 324 323 322 322 323 322 321 321 321 319 319 318 319 320 319 320 320 321 320 319 319 317 316 314 313 312 312
308 308 308 308 308 308 308 309 309 309 309 310 313 312 311 311 311 310 311 312 312 313 315 317 320 313 311 311 311 311 309 309 309 310 311 313 313 314 314 314 318 320 325 323 321 320 319 320 323 329 324 322 325 332 330 323 320 322 322 322 322 323 322 322 321 319 321 320 318 317 317 318 319 318 318 319 318 319 318 318 317 316 316 315 314 314 313
308 308 308 308 308 308 308 308 308 308 308 309 309 310 311 311 310 310 310 310 309 309 309 309 313 314 312 310 309 309 308 309 308 308 309 310 312 313 313 315 318 322 326 322 320 317 319 320 323 324 329 329 326 328 326 319 319 319 319 320 321 320 319 319 318 317 317 315 314 313 314 315 316 316 316 316 316 317 316 316 316 316 316 316 316 315 314
309 308 308 308 308 309 308 308 308 308 307 308 309 309 309 309 310 310 310 309 309 309 307 307 307 308 309 308 307 306 307 307 307 308 309 310 313 315 317 318 318 323 325 320 319 318 318 320 322 325 327 328 328 325 318 316 317 318 317 318 317 317 317 314 316 315 316 317 316 314 314 315 315 315 315 316 316 317 317 317 317 318 318 317 316 316 315
309 309 309 308 308 308 307 307 307 306 307 308 308 308 307 307 307 308 308 308 309 309 310 307 306 306 306 306 306 305 305 305 306 307 309 310 310 311 316 322 318 319 320 321 316 317 318 320 323 326 326 323 323 322 315 315 314 316 316 317 317 317 317 316 316 317 317 316 316 317 317 315 315 316 316 316 316 315 316 317 317 317 317 316 315 314 313
307 307 309 313 308 308 308 307 308 308 307 307 306 308 308 307 306 306 307 307 306 306 306 307 307 306 305 305 306 306 306 306 306 306 306 308 310 311 316 318 316 318 320 320 316 315 317 325 323 323 322 322 321 314 312 314 314 312 312 312 313 317 317 317 317 317 316 316 316 316 316 316 315 315 314 315 316 314 314 317 317 317 316 316 315 315 314
306 306 306 306 306 307 307 308 308 307 306 305 304 304 306 307 306 305 305 306 306 306 306 306 306 306 306 306 305 304 304 304 305 306 306 307 312 314 315 316 316 317 316 314 315 316 318 319 322 321 320 320 318 311 311 310 310 309 309 309 310 310 311 310 310 311 312 313 315 316 318 316 313 313 314 316 315 315 313 314 314 315 315 315 314 314 314
304 304 304 304 304 304 305 305 304 303 303 304 304 305 306 306 306 305 305 305 305 305 305 305 306 306 307 307 306 306 304 303 302 302 305 305 306 308 309 308 311 314 313 315 317 319 319 319 318 318 317 316 311 308 308 308 308 307 307 307 306 306 306 307 307 308 308 309 309 309 309 310 310 310 311 310 310 311 312 311 310 311 313 314 313 313 313
304 304 304 304 303 303 303 303 302 303 302 303 304 304 305 304 304 304 304 303 302 302 302 302 303 303 304 308 308 305 308 308 304 302 304 305 305 305 306 311 313 312 309 307 308 311 317 316 315 315 315 314 307 307 306 306 306 306 305 305 304 304 304 304 304 305 305 305 305 306 306 307 307 307 308 308 308 308 309 309 309 309 309 311 312 312 312
304 304 303 302 302 302 301 300 300 300 301 303 302 304 304 303 302 301 302 301 302 303 300 300 301 301 302 302 303 304 305 307 309 308 307 307 307 306 308 308 309 311 310 306 307 308 314 315 315 315 312 307 307 307 305 304 304 305 304 305 304 303 303 302 303 303 303 304 303 303 302 302 303 304 304 304 303 303 303 304 304 304 306 308 308 307 307
302 302 302 304 303 303 303 302 302 302 301 302 302 304 304 303 303 304 302 301 299 300 298 298 299 300 301 301 302 303 304 304 306 309 307 306 306 309 311 308 306 308 306 304 303 303 305 308 308 310 309 308 306 306 305 304 304 304 304 302 303 303 302 302 302 301 301 301 301 301 300 300 300 300 300 300 301 301 301 301 301 301 301 300 300 301 302
303 303 303 302 302 302 302 303 303 303 303 303 302 303 303 303 302 301 301 305 299 297 296 296 295 298 300 301 302 301 303 304 304 303 306 305 304 302 305 308 304 303 300 300 299 300 302 307 312 312 311 306 305 304 307 306 303 302 303 304 303 302 303 302 303 301 301 301 300 299 300 300 298 298 298 298 299 299 299 299 299 299 299 298 298 299 298
Wind_Speed
12 13 15 12 9 11 10 14 13 14 13 12 19 19 8 14 12 15 6 8 7 7 8 9 9 8 9 13 9 8 10 7 7 7 7 10 14 17 15 12 13 15 16 16 17 18 18 17 17 18 16 16 15 15 16 16 16 18 17 17 17 17 17 17 18 17 15 14 14 14 15 14 14 14 14 13 13 13 13 13 12 13 12 12 12 12 12
15 14 14 15 16 8 7 13 16 16 16 17 18 17 11 16 11 8 12 12 15 11 10 11 12 11 10 8 3 2 2 7 10 11 12 13 14 14 14 15 16 17 19 18 18 18 17 18 19 18 16 16 16 17 16 16 17 17 15 17 17 17 18 19 17 15 15 14 14 14 14 15 15 14 13 13 13 14 14 13 13 12 12 12 12 13 13
12 12 11 14 16 15 12 7 10 15 18 18 17 15 12 10 11 5 7 9 12 7 7 10 10 5 2 2 7 10 9 8 9 10 12 14 15 16 16 16 16 16 16 16 15 16 17 18 19 18 18 18 18 18 16 16 17 16 16 16 17 18 19 18 16 15 15 15 14 15 16 14 13 14 15 13 13 14 13 13 14 13 12 13 13 13 14
9 7 6 15 15 13 13 13 11 14 16 18 15 13 8 10 13 7 5 6 7 8 8 6 5 0 3 6 8 7 5 6 8 9 11 11 11 10 10 11 12 14 15 15 15 17 18 19 19 17 17 16 15 16 16 17 17 15 16 17 18 19 18 15 15 16 16 15 16 16 15 16 15 14 13 13 14 14 14 14 14 12 13 14 14 13 13
6 9 11 11 13 9 11 18 22 17 12 8 7 7 11 17 15 12 12 12 7 12 8 7 9 7 4 0 2 3 4 3 4 8 11 10 10 11 11 11 12 14 15 16 17 18 17 18 17 19 19 16 16 17 17 18 15 15 17 18 18 18 16 15 17 16 16 16 17 16 16 16 14 13 14 14 15 14 16 15 12 13 15 14 14 14 14
9 17 16 11 6 12 18 16 10 12 12 12 10 8 8 11 15 8 9 13 9 5 3 7 10 7 4 3 1 0 2 4 2 3 5 5 7 11 13 15 17 18 15 13 14 17 17 18 20 19 17 18 19 18 18 14 14 15 16 17 16 17 15 16 17 16 16 17 18 18 16 15 14 15 15 17 16 14 12 12 14 15 14 15 14 14 14
6 9 10 5 9 14 12 6 10 13 13 12 15 9 5 3 2 0 0 1 3 7 7 2 2 6 5 4 5 5 5 4 2 1 3 3 2 4 5 5 7 9 11 13 14 13 13 14 14 13 13 15 15 12 11 12 14 16 16 17 16 15 15 15 15 15 16 17 18 16 15 15 15 16 17 16 15 14 13 15 15 15 15 15 15 15 15
5 4 3 3 7 8 3 2 6 11 10 10 10 2 0 1 1 3 5 7 5 5 7 6 8 8 8 5 6 5 5 4 4 3 3 3 2 4 5 5 5 6 11 16 17 17 16 14 14 15 16 16 13 14 13 15 15 15 15 15 15 13 14 15 16 16 17 17 16 15 15 15 16 17 17 16 16 14 13 13 12 11 11 12 14 14 14
5 5 5 8 6 5 2 2 2 7 8 9 14 7 1 1 1 3 7 4 3 4 6 13 10 6 1 7 6 6 7 7 5 3 3 2 2 2 3 3 6 6 2 3 3 3 3 10 13 14 14 13 14 13 13 14 14 15 15 15 15 16 16 16 16 16 16 16 15 15 15 16 17 17 17 16 15 13 14 14 13 13 14 14 13 14 14
7 7 6 4 2 8 5 7 4 7 14 17 10 10 2 2 2 1 5 8 7 9 10 13 12 4 6 4 3 6 8 7 9 6 5 5 6 6 6 6 4 2 5 7 5 7 5 5 7 6 6 8 10 10 12 13 13 14 14 16 16 16 16 16 17 16 16 16 16 16 15 17 18 16 15 13 14 13 14 14 14 15 13 12 12 13 13
4 4 3 3 3 6 7 3 6 4 10 11 9 8 9 2 1 2 3 6 7 13 16 11 5 6 7 4 4 4 8 9 8 8 8 7 6 6 7 8 9 7 6 3 8 10 8 9 9 7 6 7 7 10 11 12 13 13 15 16 15 16 17 16 16 16 15 16 17 17 17 18 17 16 16 15 13 11 12 13 14 12 11 12 12 11 12
7 4 4 5 4 0 9 12 14 18 7 12 10 12 9 4 1 0 2 6 10 6 3 7 6 8 11 8 4 3 5 6 7 8 10 11 11 10 7 6 5 4 5 4 1 6 11 13 10 11 10 9 10 12 12 11 12 14 16 16 16 15 15 14 14 14 15 17 17 18 19 18 16 16 14 12 13 14 13 12 12 12 11 12 13 12 11
7 7 6 4 6 1 11 12 17 16 14 4 15 14 7 5 3 0 3 5 4 6 6 2 7 1 2 4 1 4 5 6 9 10 9 7 6 9 11 11 10 6 5 5 5 6 6 6 2 6 11 13 13 12 11 10 14 17 17 17 16 16 15 14 14 15 15 17 19 19 18 17 15 14 13 14 14 14 14 12 12 11 12 12 12 11 11
2 2 3 7 4 1 13 21 20 10 2 8 10 4 2 11 6 3 3 10 6 10 11 9 8 5 6 6 5 5 7 7 7 10 11 12 12 12 11 12 13 11 9 8 5 6 5 5 0 2 4 8 11 11 12 15 17 17 16 15 14 14 14 15 16 17 17 17 18 17 16 14 14 15 15 14 13 14 12 13 14 13 12 12 11 10 9
0 1 0 2 3 1 19 24 17 5 3 6 8 9 7 5 9 8 4 8 5 13 12 10 10 9 7 6 6 7 8 9 10 11 13 14 14 14 15 17 16 13 10 10 10 10 7 9 8 1 5 7 7 6 10 15 16 13 9 7 7 8 10 13 14 16 16 17 16 13 14 16 17 15 13 13 14 13 13 12 13 13 12 11 10 9 7
2 2 0 1 3 12 16 12 5 9 6 8 5 17 10 3 7 8 9 5 6 9 13 12 11 10 9 7 6 7 9 10 10 11 11 11 11 10 11 9 10 11 9 9 9 10 8 7 6 8 2 6 7 9 13 15 12 11 11 13 12 13 13 13 13 13 14 15 15 13 15 15 15 15 14 15 14 13 14 13 12 12 10 9 9 9 9
1 4 2 5 9 11 11 10 7 6 8 10 11 5 14 13 5 4 10 10 8 10 13 13 11 10 8 8 7 8 8 8 10 10 10 10 10 11 10 10 10 9 9 10 10 9 10 11 8 6 3 3 5 9 12 6 5 7 10 10 11 13 14 14 15 15 14 13 14 15 14 15 15 15 16 15 14 13 13 13 12 12 10 9 10 10 9
1 1 2 7 8 11 15 12 9 11 11 10 10 5 11 5 6 4 10 10 11 10 9 13 10 10 9 9 9 8 8 8 8 7 7 8 8 9 8 8 9 8 8 9 9 10 10 12 10 8 7 5 4 8 5 5 8 9 10 10 12 13 13 13 14 14 14 14 15 16 16 15 17 17 18 17 15 13 13 13 13 12 10 10 9 9 9
3 2 5 9 10 13 15 13 11 12 11 9 7 7 7 8 8 9 8 9 10 9 9 12 14 12 10 10 8 6 6 7 7 6 6 6 7 8 8 8 6 6 7 7 9 9 10 10 9 8 8 6 6 7 8 7 5 7 9 11 12 12 13 14 13 13 15 14 14 15 16 15 15 15 15 15 15 14 14 13 12 11 11 11 10 10 10
6 4 5 9 7 7 11 9 9 10 10 10 10 8 6 7 8 9 8 8 10 8 12 11 13 12 9 9 8 8 7 7 7 5 5 6 5 4 4 6 6 4 4 4 4 4 5 7 7 7 6 7 7 8 7 6 4 4 7 10 11 12 13 12 13 14 15 19 18 14 15 15 14 14 13 15 15 15 16 15 14 13 13 13 13 12 11
4 5 3 6 5 6 11 13 11 8 7 8 10 10 11 11 14 13 13 12 9 11 10 9 12 13 10 10 10 11 10 9 8 8 8 7 6 5 5 4 3 3 3 3 2 2 2 3 5 5 6 6 7 8 8 9 9 5 8 8 9 10 11 11 12 14 15 16 16 15 14 11 4 5 13 15 13 9 4 10 14 17 17 14 12 11 11
5 3 0 5 4 4 9 11 11 10 8 9 10 11 13 12 12 11 12 11 10 10 8 8 11 12 9 8 10 12 10 9 10 10 9 8 9 9 7 5 5 4 5 4 4 4 2 2 3 4 5 5 6 7 7 8 9 10 9 4 5 7 8 9 10 11 11 13 14 14 14 14 13 8 10 10 9 12 10 16 21 18 13 7 7 9 10
5 4 5 6 8 3 6 8 9 8 7 7 11 11 9 10 9 8 9 10 10 10 9 7 10 9 9 8 9 11 9 8 8 8 9 9 9 9 9 8 8 8 7 7 7 7 6 4 3 4 5 6 7 7 7 8 10 9 10 10 8 3 3 5 7 6 3 3 4 8 11 12 13 15 12 13 15 15 19 20 18 21 20 16 12 11 12
7 8 6 4 2 7 2 7 7 7 6 6 11 10 9 9 8 8 9 8 8 8 8 8 7 7 7 5 7 10 8 8 8 8 8 9 9 9 9 9 10 10 10 8 7 7 6 6 6 5 5 5 4 5 5 6 7 9 10 10 10 10 6 5 5 4 5 6 6 7 6 9 13 16 17 17 13 15 19 21 18 16 16 17 16 12 14
5 4 7 5 3 7 4 6 5 5 6 7 9 10 9 9 9 8 9 8 6 7 8 8 7 7 8 7 7 8 8 8 7 8 10 10 11 10 10 12 12 11 10 9 8 8 8 9 9 8 8 8 7 5 3 3 4 5 6 7 8 9 11 7 5 6 6 6 5 6 7 7 5 7 12 16 18 15 16 21 22 20 18 18 16 14 15
6 7 8 7 3 3 1 2 8 6 5 5 8 7 9 10 9 9 9 7 7 7 8 8 8 8 7 8 7 7 10 9 7 8 10 9 9 10 11 10 9 8 8 9 9 9 10 11 11 10 10 10 9 8 5 5 5 5 6 5 5 4 5 7 9 9 9 8 7 6 4 11 10 9 10 10 12 14 16 15 15 16 19 18 16 17 15
7 7 11 10 5 1 3 3 3 5 5 4 7 8 7 8 9 8 7 8 9 9 9 9 8 6 8 8 7 8 8 5 8 10 9 10 10 7 6 6 8 9 10 9 9 10 11 10 10 10 10 9 7 7 5 5 6 6 5 5 5 7 11 8 7 8 7 6 3 3 5 8 10 9 11 9 10 11 11 13 13 12 10 9 15 16 11
6 4 1 7 10 4 2 3 3 3 2 1 8 9 7 8 10 12 12 11 11 10 10 9 9 9 10 8 8 8 9 10 10 8 9 8 6 5 5 6 8 8 8 9 8 9 9 9 9 9 9 8 7 7 8 8 7 7 5 4 7 8 8 9 8 7 6 5 6 8 8 8 7 9 9 9 8 7 9 10 11 10 10 10 9 11 17
6 5 3 5 7 5 4 4 5 4 4 4 3 6 11 13 10 11 11 9 6 7 9 9 8 8 8 7 7 8 7 8 9 9 7 6 7 7 4 5 7 7 8 9 9 8 9 9 9 9 9 7 6 7 7 7 8 7 6 7 6 6 9 8 7 5 5 7 8 8 9 9 9 10 10 10 9 9 10 10 9 8 12 10 10 11 11
9 8 8 7 6 5 6 5 4 4 5 5 8 8 6 10 12 9 8 7 7 9 5 5 8 9 7 8 8 7 7 6 5 4 5 5 5 6 7 5 5 9 10 11 9 8 10 9 9 9 7 6 6 5 6 7 7 8 8 8 6 4 5 5 5 7 8 9 9 12 10 9 9 9 9 9 9 9 9 9 10 11 10 9 9 12 10
14 14 13 12 10 8 6 4 4 5 5 5 6 7 6 6 10 9 6 5 6 7 6 7 7 8 8 7 4 4 4 4 4 5 6 6 7 7 7 8 10 9 8 7 7 7 8 8 8 8 6 5 4 5 6 7 6 7 7 6 4 8 11 11 9 8 8 7 8 8 8 8 7 7 8 8 9 9 9 8 9 9 9 8 9 7 7
18 16 15 12 10 10 8 6 6 8 7 8 9 8 6 6 8 7 5 6 6 7 7 8 8 7 5 4 4 5 5 6 6 7 7 7 7 7 7 7 6 6 5 6 7 8 7 8 10 7 6 6 7 6 5 6 5 5 5 4 4 5 8 10 7 8 7 7 7 8 7 7 7 7 7 7 7 8 8 9 9 8 7 8 7 6 6
15 14 12 12 12 12 11 8 7 9 9 10 8 6 5 5 5 4 4 5 7 7 7 7 5 5 5 5 6 6 5 5 7 8 8 8 7 6 5 5 5 5 6 6 6 6 7 7 7 6 7 8 8 8 7 6 5 5 4 4 5 6 6 6 7 7 7 7 7 7 7 7 6 7 7 8 7 7 8 9 8 8 8 7 7 6 6
14 11 9 8 8 10 9 7 6 7 7 8 9 9 7 7 7 7 6 5 7 7 7 6 5 5 5 6 6 6 7 9 9 9 8 7 7 7 6 5 4 5 5 6 7 7 7 6 5 6 6 7 8 8 8 8 6 5 4 4 5 5 6 5 6 6 6 6 6 7 6 5 6 6 7 7 7 7 8 8 7 8 8 7 6 7 7
11 10 9 8 7 8 9 8 6 6 7 9 9 8 8 7 7 8 7 7 5 3 4 5 6 5 5 6 7 7 8 8 6 6 6 7 7 7 6 6 6 7 8 9 9 8 6 5 4 5 6 6 7 7 7 7 6 6 4 4 6 5 5 5 5 4 5 5 6 7 6 6 6 6 7 7 6 6 7 6 7 6 7 8 6 6 6
10 10 9 9 9 8 8 9 7 7 6 6 7 8 8 6 7 8 8 7 5 6 7 7 7 7 7 7 7 7 7 7 6 7 7 7 6 6 8 9 9 9 9 10 10 9 8 7 11 12 7 7 6 5 5 4 5 5 5 5 5 5 6 5 5 5 4 5 5 5 6 7 7 6 6 6 6 6 7 7 7 6 7 8 8 7 7
10 10 9 9 9 9 9 9 8 6 5 5 5 7 9 8 7 6 7 8 8 7 6 7 8 9 8 6 6 6 6 6 6 6 6 5 6 9 9 9 10 9 9 10 9 8 7 8 14 14 9 6 7 5 3 7 5 5 5 5 5 5 5 5 5 5 5 4 5 5 6 6 5 6 5 5 5 5 5 5 5 4 5 5 6 7 7
10 10 11 10 9 9 8 6 7 7 7 7 7 7 8 7 7 8 8 8 8 7 8 8 7 6 7 7 7 8 7 7 7 7 7 7 7 9 9 9 8 8 8 7 7 6 7 10 14 9 7 6 6 6 2 6 6 5 5 5 5 5 5 5 5 5 4 5 5 5 6 5 5 5 5 5 4 4 4 5 5 5 5 5 6 7 7
9 8 10 9 8 7 7 8 9 9 8 7 6 6 6 7 8 9 9 8 7 7 8 8 8 8 8 7 7 7 7 7 6 6 6 6 6 8 7 6 5 4 3 4 5 6 7 8 6 8 8 7 7 7 7 8 8 6 5 5 6 5 5 3 4 4 5 6 6 6 5 5 6 6 6 5 5 5 1 3 7 6 6 7 7 7 7
9 8 7 6 7 7 8 9 10 9 7 6 6 6 5 7 8 8 8 9 7 6 7 7 8 8 7 7 7 7 6 6 6 6 6 6 6 7 7 8 7 6 6 9 7 7 12 17 11 8 7 7 7 7 7 8 7 5 5 5 4 4 4 3 3 3 4 5 7 7 4 1 1 5 5 7 5 5 5 5 4 5 6 5 6 6 6
10 8 8 8 8 9 10 11 10 8 7 7 7 6 6 7 7 8 8 7 6 6 7 6 7 7 6 6 6 6 5 6 6 7 6 5 7 7 8 8 7 6 8 8 8 8 10 10 9 8 8 8 8 9 7 9 7 5 5 6 5 5 6 5 4 4 3 3 3 3 4 3 0 1 2 3 5 6 6 7 7 6 6 7 6 5 5
8 8 10 10 10 10 10 11 10 10 9 7 7 7 8 8 8 7 6 7 7 7 6 6 8 6 5 5 6 7 8 7 7 7 7 8 7 6 7 7 7 6 13 12 11 10 8 8 7 7 7 7 7 13 12 6 6 6 6 6 5 5 5 4 4 5 5 5 5 4 4 4 4 3 3 3 2 3 2 2 2 1 4 6 6 6 6
11 11 10 11 11 11 11 11 10 10 10 9 8 8 8 8 9 9 10 9 8 7 8 7 8 9 8 8 8 9 8 7 8 7 8 8 8 6 6 5 6 9 15 10 9 8 9 8 8 8 12 10 10 15 12 7 6 5 5 5 4 4 4 4 4 5 5 5 5 4 4 4 3 3 2 2 3 4 5 4 5 4 5 4 1 5 4
11 11 11 11 11 10 10 11 11 12 11 9 8 9 11 10 9 9 10 10 9 9 9 9 9 8 8 9 9 9 8 8 7 6 7 8 10 10 8 7 6 11 18 10 9 9 9 9 9 14 19 20 19 16 9 7 6 6 5 5 5 4 3 4 5 4 4 6 6 6 5 4 4 4 4 4 3 5 6 5 5 5 5 5 2 2 3
11 10 11 11 11 11 11 10 11 10 9 9 10 10 10 10 9 9 9 10 9 9 8 8 8 8 8 8 8 7 7 7 7 7 8 8 8 8 8 9 10 8 12 15 9 9 8 10 14 20 18 19 19 17 10 9 9 8 7 6 4 4 5 5 4 4 5 5 5 5 4 4 3 4 5 5 4 2 3 5 4 2 2 4 3 5 5
11 11 12 13 12 10 8 8 8 10 11 11 11 10 9 9 10 9 9 10 10 9 8 8 8 6 5 5 5 7 8 9 9 7 6 5 6 5 7 11 9 11 18 18 9 9 9 18 20 18 19 19 18 12 10 10 9 9 9 9 9 8 7 6 6 6 5 4 5 4 2 1 2 2 2 2 2 2 2 2 5 5 5 4 6 6 6
12 11 11 10 9 9 10 10 11 12 11 11 10 8 8 9 9 9 8 9 9 9 9 10 9 8 7 7 6 6 7 8 8 8 7 6 7 9 11 15 15 18 14 10 10 10 9 11 15 19 19 20 18 10 10 10 10 10 10 10 9 9 9 9 9 8 8 8 8 5 3 1 1 1 1 1 1 2 1 1 4 5 5 4 4 5 5
11 11 10 9 10 10 10 11 12 11 10 8 6 7 7 9 10 10 10 10 10 11 12 11 10 10 11 10 9 8 5 6 9 8 7 6 7 7 7 6 9 13 14 13 14 14 20 20 20 20 20 19 12 10 10 10 10 10 10 10 10 10 10 10 10 9 9 9 9 9 9 10 9 9 8 8 7 4 2 2 2 3 4 5 6 6 6
10 10 10 10 11 12 11 11 10 10 8 8 9 8 8 11 11 11 10 10 11 11 11 11 12 11 11 10 11 9 9 8 6 4 4 5 6 6 6 8 13 13 9 8 8 7 14 18 18 19 19 16 10 10 10 10 10 9 9 9 9 9 9 9 9 8 9 10 9 9 9 9 9 8 8 8 9 9 9 8 7 6 4 3 4 3 4
10 11 11 10 10 10 9 10 9 7 7 8 8 7 9 11 11 10 8 8 8 9 10 10 10 10 9 9 9 9 9 9 9 7 7 7 6 6 7 7 7 12 12 8 7 8 11 16 16 16 12 9 9 9 9 9 9 9 8 9 9 9 10 10 10 12 10 10 10 10 10 9 9 11 10 9 10 10 10 9 9 12 16 10 7 6 6
9 9 8 8 8 8 9 9 7 7 8 8 8 8 10 10 10 9 9 9 9 10 9 10 10 10 10 10 9 10 10 9 10 12 10 9 9 10 11 8 7 7 7 7 7 7 6 6 7 8 8 8 7 8 7 7 7 8 8 8 9 8 9 10 9 10 10 9 9 9 9 9 9 10 10 10 10 9 9 10 10 10 10 8 9 8 8
8 7 7 8 8 9 8 8 8 8 7 8 8 8 9 9 9 9 10 14 10 9 9 10 11 10 9 9 10 9 9 11 9 9 10 10 10 8 10 12 9 8 8 7 7 6 6 6 7 9 9 7 6 7 8 10 8 7 7 7 7 8 8 7 8 8 9 9 9 9 9 8 7 8 9 9 9 9 10 10 9 9 9 9 10 10 9
Wind_Direction
304 273 237 205 188 200 192 200 198 202 207 197 207 211 188 159 196 223 166 187 191 227 229 239 239 226 237 246 249 232 224 219 227 221 208 208 204 199 197 198 193 194 195 194 195 193 194 193 193 195 195 198 198 200 198 193 190 192 188 188 191 193 195 200 203 200 196 196 199 200 201 202 203 203 202 201 199 198 199 202 203 204 202 200 200 203 207
301 280 247 229 210 205 190 200 197 198 202 211 210 212 191 186 208 195 180 188 206 201 219 225 238 233 226 242 244 308 268 236 215 201 202 204 207 203 196 192 195 198 198 195 194 193 193 191 193 192 194 195 195 196 197 194 195 194 182 189 191 193 197 201 200 194 193 194 197 199 201 203 203 201 201 200 200 200 200 201 202 201 201 201 202 203 205
302 285 249 231 227 217 219 213 206 202 202 211 211 206 202 208 224 203 190 188 223 241 216 220 236 275 355 349 283 243 230 237 216 202 203 203 204 203 199 196 197 198 199 197 194 193 194 193 193 192 194 195 196 197 195 192 194 188 184 190 193 196 201 200 194 190 191 195 195 199 203 202 201 200 200 199 202 202 201 200 201 200 199 201 203 205 207
308 304 241 228 228 226 225 226 214 208 208 210 208 204 183 181 211 205 174 214 242 264 247 243 268 281 209 228 249 262 245 223 203 211 217 215 213 203 196 197 200 199 197 195 193 196 196 195 193 193 195 196 192 197 194 194 193 185 186 190 195 200 202 193 189 190 193 192 196 201 199 202 200 198 198 200 202 203 201 202 202 198 201 203 202 204 208
259 285 319 274 229 219 242 231 219 205 203 210 212 208 179 198 194 203 205 222 208 217 204 198 243 229 228 358 289 295 329 310 271 229 212 208 205 199 192 195 201 204 201 199 197 198 196 195 194 196 194 189 193 197 194 198 185 182 190 194 198 201 197 190 192 192 191 191 198 200 201 200 196 195 198 201 203 202 204 203 197 201 205 202 205 205 207
287 295 303 298 225 214 226 225 204 192 197 192 205 217 204 213 195 211 206 209 215 221 191 185 230 209 184 151 54 51 356 303 211 240 298 282 237 217 210 198 197 200 201 202 202 199 197 197 196 195 189 191 198 196 196 187 179 187 192 199 199 201 194 194 194 192 190 194 198 201 198 195 193 196 199 204 204 202 201 197 202 206 204 205 207 206 207
279 293 310 293 216 224 239 116 175 192 189 182 200 209 203 224 348 147 237 223 183 202 199 261 233 142 145 121 92 45 16 18 349 218 194 209 228 265 275 251 210 199 201 202 198 195 200 201 200 194 196 200 200 195 188 182 188 189 195 197 199 198 196 197 194 192 193 196 200 200 195 193 194 200 202 204 202 200 198 200 203 205 202 205 209 209 210
275 291 236 223 237 235 311 274 195 167 162 180 138 87 355 33 278 187 198 217 217 191 161 140 161 143 163 109 62 36 13 31 7 14 33 335 274 215 197 201 246 244 215 200 193 197 198 192 193 192 198 196 191 196 185 188 188 192 194 197 200 195 198 197 196 195 195 198 200 197 193 194 198 203 203 202 201 199 200 204 206 205 207 210 211 211 212
237 230 255 233 271 288 227 168 196 168 166 172 171 174 275 300 264 182 177 179 171 141 157 148 160 196 147 61 5 10 8 357 358 4 338 1 4 349 303 243 206 179 190 286 283 310 249 200 192 197 200 194 197 188 182 191 189 194 193 198 199 197 199 197 197 196 196 197 197 195 195 197 202 204 203 203 202 196 202 204 202 203 207 207 208 209 210
195 244 292 299 229 234 239 242 253 195 175 175 160 124 265 285 313 180 161 145 152 159 159 154 164 182 75 45 328 327 350 350 351 346 356 5 14 15 16 18 18 317 198 170 169 170 181 215 224 223 216 197 191 185 190 189 189 193 195 202 201 198 200 198 196 195 194 193 194 196 196 202 204 205 204 203 203 196 201 201 205 207 206 207 208 210 206
207 232 238 252 214 245 212 250 318 267 185 164 126 156 213 265 192 313 146 128 146 162 159 161 118 103 125 201 258 295 342 343 351 349 354 5 15 22 22 25 1 355 335 254 184 171 177 190 194 171 162 167 176 198 197 192 191 193 200 206 202 202 204 199 196 194 192 192 195 196 199 204 202 201 201 202 200 196 204 205 210 207 205 208 210 207 206
223 224 248 256 226 243 18 345 345 324 298 144 129 186 238 242 45 299 123 129 130 122 98 116 99 139 150 196 230 323 355 329 341 2 358 357 2 9 15 25 17 348 344 40 60 181 182 197 179 169 162 168 189 199 202 191 190 198 204 206 203 204 203 199 196 193 194 196 198 198 203 203 199 200 197 195 195 198 202 203 206 205 204 206 207 206 201
219 210 249 280 291 353 354 342 334 316 313 206 176 206 207 183 138 100 155 108 113 121 116 129 106 321 139 144 105 25 357 1 2 4 1 358 357 5 6 4 5 23 51 52 24 343 327 333 318 189 169 175 186 196 194 192 203 205 206 204 201 202 201 196 196 196 196 198 199 202 202 199 195 194 193 196 194 196 199 201 204 204 202 204 206 206 200
142 196 195 224 248 200 345 340 325 289 115 196 205 237 158 127 125 96 121 102 93 101 96 103 99 100 66 65 61 56 35 27 17 11 5 1 6 6 5 11 15 9 4 16 42 56 11 338 334 173 193 192 198 193 183 197 211 212 208 204 201 200 196 195 197 198 199 202 202 202 199 191 189 197 196 192 192 195 195 197 200 201 200 201 203 201 193
201 79 15 236 211 297 357 333 334 27 27 254 164 120 78 106 121 118 81 93 103 103 94 87 97 90 76 63 51 42 36 33 28 20 17 19 15 9 5 2 1 8 9 9 3 9 20 14 358 328 167 196 212 202 202 213 213 214 214 212 210 210 207 205 203 202 201 200 199 199 195 193 193 193 187 189 193 192 193 196 198 201 200 197 194 188 177
106 31 355 233 321 308 320 330 298 319 290 273 172 125 118 111 124 121 104 71 95 104 113 116 107 103 98 79 57 45 40 35 29 27 24 22 17 14 12 8 359 5 14 10 6 3 16 26 8 355 302 223 212 206 222 223 218 212 204 202 198 197 198 202 205 206 206 204 200 197 194 191 192 188 186 190 189 189 190 189 192 196 197 189 183 179 176
150 162 280 339 327 309 305 311 304 289 345 10 322 112 129 138 126 133 109 117 104 106 110 105 108 101 90 86 72 65 52 46 39 33 28 18 18 13 8 5 1 16 21 13 7 13 14 5 14 5 346 261 246 237 239 236 230 221 216 207 198 198 199 200 200 203 201 198 197 197 194 188 188 189 187 184 189 193 187 186 187 190 187 179 182 179 167
213 91 201 293 310 327 337 338 359 5 8 2 1 16 98 63 103 120 123 123 120 117 114 111 102 101 103 88 71 60 51 48 45 41 30 25 19 20 19 17 19 24 19 18 20 14 4 7 358 358 353 339 275 258 274 225 208 206 205 204 205 206 205 202 202 198 196 196 195 195 192 191 192 189 184 183 189 190 186 186 182 179 172 173 173 167 166
76 316 316 320 330 339 343 339 2 27 22 14 16 22 52 91 96 91 82 105 106 110 111 107 108 103 101 97 91 87 80 70 59 51 44 35 26 21 19 6 11 35 36 32 26 17 6 352 350 350 348 342 332 320 320 305 256 210 202 206 211 211 206 201 197 192 192 193 195 195 192 192 192 190 186 183 183 181 184 183 179 172 164 167 163 162 165
111 170 284 298 327 350 347 348 10 22 20 28 28 35 38 64 74 78 84 88 84 93 89 91 95 93 95 101 104 98 89 80 74 72 67 65 64 44 29 12 10 21 40 69 53 38 6 341 338 337 341 341 336 333 318 314 285 229 220 209 210 211 207 199 193 189 191 193 192 193 192 187 185 186 188 184 181 180 184 182 175 171 167 166 166 167 162
116 103 242 316 346 4 350 359 10 19 28 40 39 36 43 46 54 56 54 51 60 68 76 77 85 80 65 67 70 68 58 50 47 46 42 46 54 51 43 34 31 37 30 38 39 48 357 325 329 328 333 337 334 335 332 333 325 269 218 213 213 202 197 195 198 195 190 187 188 186 182 172 127 156 182 183 177 171 156 183 177 174 173 164 162 156 149
93 120 217 358 62 341 324 357 354 1 15 47 51 43 43 39 49 53 65 55 51 58 58 73 82 87 82 73 79 75 66 60 54 48 43 38 35 30 26 32 39 45 30 13 3 359 325 313 318 333 338 339 340 338 346 345 349 342 319 279 199 196 199 199 195 192 196 195 187 176 164 150 139 97 44 74 131 145 130 103 90 76 80 116 142 138 138
127 135 121 96 106 61 328 346 354 353 352 49 61 55 48 42 42 50 68 77 66 59 53 50 81 88 89 89 86 81 75 71 67 65 60 52 41 34 28 29 28 29 23 20 13 13 360 347 345 354 359 0 356 355 354 3 6 358 350 329 309 292 230 210 183 174 151 146 160 157 158 149 133 121 111 52 56 98 120 116 126 136 146 141 147 172 157
109 143 144 157 170 121 24 16 357 358 346 38 61 57 57 57 54 57 66 62 80 79 72 59 55 78 82 69 81 87 78 67 67 68 67 62 55 49 42 43 37 31 23 19 20 11 359 0 1 8 18 5 5 2 5 20 32 28 20 8 342 319 282 178 148 111 112 109 110 136 145 158 148 142 129 117 80 57 93 109 106 108 117 130 136 134 128
137 160 128 102 107 115 127 101 66 22 6 44 61 54 51 55 49 55 65 62 52 72 76 68 50 43 62 58 57 66 68 53 45 56 59 57 54 49 45 43 38 33 30 28 28 25 25 23 21 14 15 13 7 9 30 52 67 70 60 36 8 3 338 324 58 67 65 69 91 108 123 103 104 118 127 124 113 108 70 81 91 95 90 86 86 94 100
124 133 115 109 97 100 146 95 80 60 32 48 66 51 53 62 68 64 59 61 58 56 64 59 55 34 40 49 49 55 64 54 54 57 55 50 47 46 41 41 40 40 38 34 34 35 38 38 34 30 26 17 9 6 21 49 56 45 37 42 62 77 25 352 48 62 53 39 30 49 98 117 102 91 87 93 109 106 113 108 80 65 64 67 80 88 75
113 124 121 93 78 18 318 318 175 123 90 56 77 78 62 61 66 73 73 63 58 53 54 52 50 40 37 32 42 44 58 57 53 50 50 48 45 40 36 46 49 49 45 37 31 29 36 42 44 39 29 13 6 14 13 52 64 57 54 56 53 49 54 50 50 57 48 45 52 75 65 70 89 94 93 86 81 93 103 107 113 111 109 60 44 49 73
99 94 76 140 156 178 121 57 28 51 11 76 93 81 69 66 59 54 49 46 45 46 49 46 47 44 45 24 35 42 38 42 46 36 39 28 12 8 18 39 49 54 50 45 32 28 32 31 37 40 32 19 15 22 29 26 35 44 45 62 69 69 43 38 40 46 42 40 46 47 44 45 61 73 77 80 83 82 80 91 101 103 78 62 68 62 67
88 89 82 93 114 123 95 70 63 57 64 2 25 91 91 72 56 55 49 45 41 53 49 42 48 50 54 36 33 42 41 37 36 29 19 8 355 340 339 30 53 50 52 49 41 33 34 34 34 32 17 7 33 37 38 56 56 42 28 14 17 58 78 58 38 29 48 60 65 65 66 60 64 67 65 71 74 82 93 95 85 76 99 109 99 76 66
92 86 75 68 74 91 105 102 99 93 71 58 52 30 34 94 87 72 68 54 53 59 44 49 54 49 44 44 32 34 38 37 34 27 30 18 10 359 344 307 46 47 40 37 31 31 38 36 35 32 8 351 9 26 54 57 61 61 42 28 10 17 75 105 113 77 64 58 53 55 55 61 65 75 83 83 87 89 88 88 104 106 110 105 101 96 108
88 79 73 68 60 54 62 75 75 68 68 64 67 74 51 50 83 83 76 80 70 67 46 48 49 51 45 46 33 24 25 28 33 41 40 31 25 18 15 24 48 41 34 21 17 26 41 39 36 28 360 1 20 40 51 67 64 59 56 53 51 53 59 61 62 72 77 75 69 73 73 69 72 82 90 96 94 96 97 97 98 97 96 93 100 94 113
86 80 77 74 72 67 54 41 63 67 67 65 63 56 49 63 78 87 86 75 73 72 62 53 50 46 40 36 40 39 36 27 24 26 26 30 28 23 23 23 32 36 30 25 23 19 22 35 34 12 6 27 35 41 64 79 81 76 92 113 95 76 66 75 75 74 80 79 82 80 80 81 78 82 88 89 100 112 117 111 101 105 107 111 109 102 117
88 85 80 80 78 68 56 34 45 59 62 66 59 54 58 58 62 67 68 73 72 65 67 65 56 47 40 41 40 37 34 40 41 31 26 22 18 16 10 19 21 24 25 17 13 12 20 31 21 8 20 30 38 42 41 44 57 81 91 90 89 85 90 90 100 92 85 89 93 97 102 104 107 108 110 110 107 106 102 103 110 112 111 112 115 118 127
92 98 101 93 96 99 87 55 31 56 55 64 69 60 42 45 65 68 67 68 73 71 69 68 64 61 54 50 46 40 41 47 40 28 20 18 16 11 6 8 15 26 28 18 14 14 15 6 8 18 25 31 37 44 45 44 43 37 44 66 78 86 87 88 94 100 100 95 99 103 99 97 97 102 106 107 110 111 112 117 117 120 117 111 113 126 131
81 78 68 59 56 72 84 81 46 37 55 65 62 62 64 56 61 74 79 68 57 58 61 66 63 60 55 52 47 45 49 55 48 39 30 26 21 14 12 24 25 29 33 30 18 2 354 9 21 14 18 35 41 43 44 50 50 47 27 50 69 67 69 75 67 76 100 109 107 104 103 99 94 95 98 100 101 102 101 103 112 114 112 114 116 123 132
77 74 72 67 63 65 70 76 62 46 46 53 62 71 69 66 68 69 70 70 71 68 65 67 66 61 54 47 47 44 45 40 39 36 30 24 22 26 32 33 29 31 32 30 17 4 354 10 37 41 29 14 27 43 50 53 58 58 47 40 55 65 68 61 67 65 59 86 94 102 108 106 99 92 96 96 99 106 117 121 124 126 127 134 138 140 137
73 76 71 72 69 67 62 61 62 60 56 53 61 67 67 63 66 66 66 61 56 54 59 67 65 63 59 56 57 50 43 40 42 42 35 26 34 42 35 32 29 27 25 28 358 350 4 16 25 27 25 18 6 1 37 74 64 54 61 67 68 62 65 65 60 69 62 56 87 97 98 101 96 103 105 111 117 116 103 105 113 116 125 131 137 140 142
63 77 80 77 74 65 56 68 73 64 62 56 44 50 60 63 58 62 61 59 56 60 63 64 69 71 69 62 55 47 41 38 42 43 40 35 36 50 38 36 27 23 25 6 327 355 10 17 23 22 13 9 359 341 9 107 74 66 61 62 66 67 59 56 58 63 67 63 61 70 76 83 98 89 88 83 79 92 118 126 128 134 133 143 145 151 153
88 90 91 92 92 99 95 82 74 65 49 52 50 48 47 61 65 66 62 55 52 64 71 72 69 65 60 61 55 45 39 36 40 44 41 35 40 52 48 34 20 13 12 347 357 13 16 22 22 20 14 6 4 9 23 61 66 62 59 62 60 53 45 58 88 91 83 79 67 59 66 88 104 115 108 96 109 110 110 184 152 149 152 158 156 157 158
71 69 81 88 86 83 78 70 66 68 72 58 56 61 52 64 62 65 63 59 50 59 69 72 72 70 62 58 53 49 34 34 31 39 38 37 42 46 40 29 16 360 10 22 17 15 20 23 24 23 18 11 21 26 20 38 47 51 62 60 70 83 95 43 10 80 108 115 113 107 87 22 56 125 136 136 126 152 151 151 161 157 154 157 156 156 154
70 68 64 64 64 65 68 73 73 61 55 61 54 52 48 61 64 62 59 62 55 59 65 70 75 69 63 62 61 55 45 39 34 31 22 36 43 37 44 32 354 4 21 28 28 24 26 25 23 23 14 20 19 35 36 32 39 42 42 49 40 34 28 32 16 20 18 36 70 90 109 108 126 109 121 160 156 152 164 178 171 167 160 162 157 155 160
60 61 60 57 54 55 56 58 59 57 47 41 43 52 56 60 66 71 68 65 60 52 53 55 71 77 71 61 59 52 44 34 38 38 40 44 35 19 30 13 349 13 38 32 26 26 21 16 13 19 26 27 22 36 41 41 42 56 62 63 69 62 62 51 41 34 36 51 54 60 75 102 133 142 120 99 68 27 19 54 59 104 168 158 156 160 155
54 57 57 56 56 55 55 56 57 59 54 42 43 52 57 62 67 65 62 58 58 57 55 47 45 46 47 48 49 45 33 26 32 31 41 41 43 39 43 26 22 42 48 38 35 27 24 10 15 13 26 28 32 33 33 30 31 35 46 55 65 73 79 85 91 89 84 63 47 60 74 73 70 83 93 104 105 117 118 118 107 74 21 0 46 120 154
54 53 54 56 56 57 58 59 60 58 58 49 49 58 60 58 59 67 67 64 59 59 61 56 52 53 54 58 57 49 35 30 28 25 45 37 34 25 16 35 37 42 46 41 35 32 29 26 29 34 35 35 36 39 37 31 25 25 25 36 48 53 54 52 53 60 62 71 74 62 57 65 71 77 94 99 110 127 130 121 123 130 158 160 179 150 194
48 52 55 56 54 54 54 57 65 71 70 63 54 50 52 56 53 52 61 61 58 53 52 55 56 58 62 64 68 66 59 46 35 30 44 40 40 20 0 29 39 37 42 43 36 31 28 34 39 42 40 37 38 39 34 30 29 29 23 23 30 40 38 35 41 51 64 74 74 82 89 93 95 101 112 122 117 114 112 112 91 87 172 145 157 192 198
49 47 50 53 51 52 57 66 68 67 65 63 57 47 44 52 55 51 51 60 60 56 58 60 58 49 48 57 65 66 63 53 39 31 35 35 49 16 25 44 37 42 43 43 34 29 25 40 44 44 45 44 41 37 32 32 33 31 29 28 23 25 29 28 26 14 14 42 75 90 69 23 36 33 26 29 75 105 100 132 156 191 212 192 191 199 199
55 50 49 53 51 50 55 57 58 57 54 53 49 41 32 43 51 51 48 51 55 50 43 41 42 37 36 42 47 55 62 58 42 27 22 23 36 44 43 46 45 45 44 42 39 34 32 36 39 43 46 48 47 40 35 36 34 35 35 33 31 30 29 28 29 31 28 18 12 9 18 19 13 43 85 34 354 358 38 204 216 213 214 212 210 203 190
58 55 50 53 56 53 54 53 53 51 48 48 52 49 46 53 55 54 50 49 48 49 46 41 37 31 26 25 23 23 25 66 66 23 2 25 39 43 42 47 52 55 52 47 46 44 43 43 43 44 46 47 44 39 39 37 36 35 36 35 33 31 29 29 29 31 33 36 33 33 26 21 20 21 20 16 355 324 280 220 244 271 245 212 208 207 197
57 61 56 54 54 53 55 55 53 52 48 50 55 51 51 58 52 44 41 44 48 47 46 40 36 30 25 24 27 22 17 21 63 63 0 22 37 38 30 35 42 46 47 45 42 36 43 46 47 48 49 50 47 44 42 42 41 39 37 38 39 36 35 36 34 33 39 38 36 36 32 32 30 29 27 29 27 18 16 18 18 21 349 303 287 249 218
56 58 55 52 51 50 52 59 57 51 46 51 55 53 54 56 53 38 32 36 46 53 49 43 36 29 25 24 22 24 22 22 22 23 15 16 17 26 27 30 39 45 45 44 39 34 36 44 47 52 52 51 52 53 52 50 47 47 46 43 42 42 40 42 45 44 44 42 41 40 39 36 31 32 31 32 33 28 24 23 26 15 13 21 19 13 1
54 58 60 61 61 61 59 62 65 63 61 57 58 56 59 63 63 53 45 40 41 45 43 44 38 28 23 22 22 22 23 27 29 30 26 19 16 16 20 24 27 36 41 41 35 30 29 39 46 46 50 53 56 59 60 62 61 55 52 55 51 52 48 45 45 46 46 47 46 45 43 39 40 42 39 37 37 37 32 29 25 22 25 21 21 15 11
57 57 59 57 58 56 56 54 53 59 64 63 60 59 62 64 65 56 48 42 46 44 42 44 38 20 20 22 22 20 21 27 29 26 28 26 21 18 14 20 18 17 21 26 30 30 31 33 46 58 58 51 48 49 53 56 53 54 54 54 57 57 56 56 53 55 52 48 51 51 47 45 45 47 44 44 44 39 38 37 35 32 29 29 26 24 26